Don't worry if you're not interested in monitoring boats - all MaxMon alerts have the same look and feel. See below for a real-world alert from a MaxMon Quatropus-T4 system left on a boat in a marina over the winter. The owner lives almost three hours away from the marina.

Things to note:

  • Shore power is ON and relative humidity is being effectively controlled by an onboard dehumidifier. The saw tooth pattern on the relative humidity graph is due to the dehumidifier being set to a one-hour-on one-hour-off duty cycle via a cheap timer socket.
  • By contrast the temperature is not being particularly effectively controlled by an onboard greenhouse heater. The heater is set to the same one-hour-on one-hour-off duty cycle but should probably be on all the time (or remotely controlled via an Actuator-RF).
  • Alerts are shown by an ALERT prefix in the email subject and a ** before each alerting sensor. In this report the temperature is below 4°C and the boat is 244m from its 'home' location. The latter is because the boat has recently been lifted out onto the hard (see the GPS location links in the report) from its pontoon berth and its 'home' location has not been updated.
  • There has been no passive infra-red motion or acceleration (vibration) in the past 24 hours. So no intruders or no visit from the marina staff you asked to pop round and switch the heater from its one-hour-on one-hour-off duty cycle to being on all the time :)

Want this monitoring and reassurance for your own boat? Get started with MaxMon.

Aisling

06:43:48, Fri 24-Jan-2014
Period: 24hr
Acceleration : 0.0 (0.0)
Battery(%) : 100.0 (100.0)
Humidity(%) : 58.4 (55.4 to 62.2)
Location(LL) : 51.95708,1.27574 gps ±4m
**Location(m) : 244.0 (243.5 to 245.9)
Memory(MB) : 45.9 (42.8 to 54.3)
Motion(secs) : 0.0 (0.0 to 0.4)
Power : ON (ON)
**Temperature(C) : 0.5 (0.5 to 6.9)
[**=alert, *=past alert, ?=dropouts, app=1.2.6]

NOTE: supporting data files are attached to this report (see your email client for details)

Acceleration

Battery(%)

Humidity(%)

Location(m)

Memory(MB)

Motion(secs)

Power

Temperature(C)

Return to top

TimeAccelerationBattery(%)Humidity(%)Location(LL)Location(m)Memory(MB)Motion(secs)PowerTemperature(C)
06:49:08, Thu 23-Jan-2014 0.0 100.0 58.1 51.95708,1.27574 gps ±4m 244.1 51.2 0.0 ON 5.7
06:59:08, Thu 23-Jan-2014 0.0 100.0 56.7 51.95708,1.27574 gps ±4m 244.1 51.1 0.0 ON 5.7
07:09:08, Thu 23-Jan-2014 0.0 100.0 56.1 51.95708,1.27574 gps ±4m 244.1 50.7 0.0 ON 5.7
07:19:08, Thu 23-Jan-2014 0.0 100.0 55.8 51.95708,1.27574 gps ±4m 244.1 50.6 0.0 ON 5.8
07:29:08, Thu 23-Jan-2014 0.0 100.0 55.8 51.95708,1.27574 gps ±4m 244.1 50.5 0.0 ON 5.7
07:39:08, Thu 23-Jan-2014 0.0 100.0 55.8 51.95708,1.27574 gps ±2m 244.1 50.8 0.0 ON 5.7
07:49:08, Thu 23-Jan-2014 0.0 100.0 56.0 51.95708,1.27574 gps ±4m 244.1 50.6 0.0 ON 5.7
07:59:08, Thu 23-Jan-2014 0.0 100.0 56.4 51.95708,1.27574 gps ±4m 244.1 50.6 0.0 ON 5.6
08:09:08, Thu 23-Jan-2014 0.0 100.0 57.1 51.95708,1.27574 gps ±4m 244.1 50.8 0.0 ON 5.5
08:19:08, Thu 23-Jan-2014 0.0 100.0 57.6 51.95708,1.27574 gps ±4m 244.1 50.7 0.4 ON 5.5
08:29:08, Thu 23-Jan-2014 0.0 100.0 58.1 51.95708,1.27574 gps ±4m 244.1 50.5 0.0 ON 5.5
08:39:08, Thu 23-Jan-2014 0.0 100.0 58.4 51.95708,1.27574 gps ±4m 244.1 50.7 0.0 ON 5.4
08:49:08, Thu 23-Jan-2014 0.0 100.0 58.6 51.95708,1.27574 gps ±6m 244.1 49.8 0.0 ON 5.4
08:59:08, Thu 23-Jan-2014 0.0 100.0 57.3 51.95708,1.27574 gps ±4m 244.1 49.8 0.0 ON 5.5
09:09:08, Thu 23-Jan-2014 0.0 100.0 56.8 51.95708,1.27574 gps ±4m 244.1 50.4 0.0 ON 5.7
09:19:08, Thu 23-Jan-2014 0.0 100.0 57.4 51.95708,1.27574 gps ±16m 244.1 42.8 0.0 ON 5.8
09:29:08, Thu 23-Jan-2014 0.0 100.0 58.1 51.95708,1.27574 gps ±4m 244.1 43.0 0.0 ON 5.9
09:39:08, Thu 23-Jan-2014 0.0 100.0 57.9 51.95708,1.27576 gps ±4m 243.6 43.0 0.0 ON 6.0
09:49:08, Thu 23-Jan-2014 0.0 100.0 58.1 51.95707,1.27575 gps ±4m 244.1 42.9 0.0 ON 6.1
09:59:08, Thu 23-Jan-2014 0.0 100.0 57.6 51.95707,1.27575 gps ±4m 244.2 43.4 0.0 ON 6.2
10:09:08, Thu 23-Jan-2014 0.0 100.0 57.7 51.95707,1.27574 gps ±4m 244.7 43.1 0.0 ON 6.4
10:19:08, Thu 23-Jan-2014 0.0 100.0 58.1 51.95707,1.27574 gps ±4m 244.8 43.3 0.0 ON 6.5
10:29:08, Thu 23-Jan-2014 0.0 100.0 58.9 51.95707,1.27574 gps ±4m 244.8 43.3 0.0 ON 6.5
10:39:08, Thu 23-Jan-2014 0.0 100.0 59.6 51.95707,1.27574 gps ±4m 244.8 43.1 0.0 ON 6.5
10:49:08, Thu 23-Jan-2014 0.0 100.0 58.6 51.95707,1.27574 gps ±48m 244.8 43.2 0.0 ON 6.6
10:59:08, Thu 23-Jan-2014 0.0 100.0 56.9 51.95707,1.27574 gps ±4m 244.8 43.1 0.0 ON 6.7
11:09:08, Thu 23-Jan-2014 0.0 100.0 56.3 51.95707,1.27574 gps ±4m 244.7 43.0 0.0 ON 6.8
11:19:08, Thu 23-Jan-2014 0.0 100.0 56.1 51.95707,1.27574 gps ±4m 244.8 47.5 0.0 ON 6.8
11:29:08, Thu 23-Jan-2014 0.0 100.0 55.9 51.95707,1.27574 gps ±4m 244.4 47.4 0.0 ON 6.8
11:39:08, Thu 23-Jan-2014 0.0 100.0 55.9 51.95707,1.27574 gps ±4m 244.4 47.4 0.0 ON 6.8
11:49:08, Thu 23-Jan-2014 0.0 100.0 57.0 51.95707,1.27574 gps ±4m 244.5 47.4 0.0 ON 6.8
11:59:08, Thu 23-Jan-2014 0.0 100.0 58.5 51.95707,1.27574 gps ±4m 244.9 47.3 0.0 ON 6.8
12:09:08, Thu 23-Jan-2014 0.0 100.0 59.4 51.95707,1.27574 gps ±4m 244.9 45.5 0.0 ON 6.7
12:19:08, Thu 23-Jan-2014 0.0 100.0 60.0 51.95707,1.27574 gps ±4m 244.9 45.6 0.0 ON 6.6
12:29:08, Thu 23-Jan-2014 0.0 100.0 60.8 51.95707,1.27573 gps ±4m 244.9 45.7 0.0 ON 6.6
12:39:08, Thu 23-Jan-2014 0.0 100.0 61.2 51.95707,1.27574 gps ±4m 244.9 45.7 0.0 ON 6.5
12:49:08, Thu 23-Jan-2014 0.0 100.0 61.1 51.95707,1.27574 gps ±4m 244.9 45.7 0.0 ON 6.5
12:59:08, Thu 23-Jan-2014 0.0 100.0 58.4 51.95707,1.27574 gps ±4m 244.9 45.5 0.0 ON 6.5
13:09:09, Thu 23-Jan-2014 0.0 100.0 57.2 51.95707,1.27574 gps ±4m 244.8 45.5 0.0 ON 6.6
13:19:08, Thu 23-Jan-2014 0.0 100.0 56.6 51.95707,1.27574 gps ±4m 245.3 44.6 0.0 ON 6.7
13:29:08, Thu 23-Jan-2014 0.0 100.0 56.4 51.95707,1.27574 gps ±4m 245.2 44.9 0.0 ON 6.7
13:39:08, Thu 23-Jan-2014 0.0 100.0 56.2 51.95707,1.27574 gps ±2m 245.2 44.8 0.0 ON 6.7
13:49:08, Thu 23-Jan-2014 0.0 100.0 57.4 51.95707,1.27574 gps ±4m 245.2 44.6 0.0 ON 6.8
13:59:08, Thu 23-Jan-2014 0.0 100.0 59.6 51.95707,1.27574 gps ±4m 245.2 44.5 0.0 ON 6.8
14:09:09, Thu 23-Jan-2014 0.0 100.0 60.2 51.95707,1.27574 gps ±4m 245.2 44.6 0.0 ON 6.8
14:19:09, Thu 23-Jan-2014 0.0 100.0 60.4 51.95707,1.27574 gps ±4m 245.2 44.4 0.0 ON 6.9
14:29:09, Thu 23-Jan-2014 0.0 100.0 60.9 51.95707,1.27574 gps ±4m 245.2 44.5 0.0 ON 6.8
14:39:09, Thu 23-Jan-2014 0.0 100.0 62.2 51.95707,1.27574 gps ±4m 245.2 44.5 0.0 ON 6.8
14:49:09, Thu 23-Jan-2014 0.0 100.0 60.7 51.95707,1.27574 gps ±4m 244.8 44.5 0.0 ON 6.8
14:59:09, Thu 23-Jan-2014 0.0 100.0 58.2 51.95707,1.27574 gps ±4m 244.9 44.5 0.0 ON 6.8
15:09:09, Thu 23-Jan-2014 0.0 100.0 57.5 51.95707,1.27574 gps ±4m 244.9 44.6 0.0 ON 6.8
15:19:09, Thu 23-Jan-2014 0.0 100.0 56.9 51.95707,1.27574 gps ±4m 244.9 44.5 0.0 ON 6.8
15:29:09, Thu 23-Jan-2014 0.0 100.0 56.4 51.95707,1.27574 gps ±4m 244.9 44.5 0.0 ON 6.8
15:39:09, Thu 23-Jan-2014 0.0 100.0 56.1 51.95707,1.27574 gps ±4m 244.9 44.6 0.0 ON 6.8
15:49:09, Thu 23-Jan-2014 0.0 100.0 56.7 51.95707,1.27574 gps ±4m 244.9 44.3 0.0 ON 6.7
15:59:09, Thu 23-Jan-2014 0.0 100.0 57.6 51.95707,1.27574 gps ±3m 244.9 44.5 0.0 ON 6.6
16:09:09, Thu 23-Jan-2014 0.0 100.0 58.2 51.95707,1.27574 gps ±4m 244.9 44.6 0.0 ON 6.5
16:19:09, Thu 23-Jan-2014 0.0 100.0 58.7 51.95707,1.27574 gps ±2m 244.9 44.4 0.0 ON 6.4
16:29:09, Thu 23-Jan-2014 0.0 100.0 59.3 51.95708,1.27573 gps ±2m 244.2 44.4 0.0 ON 6.3
16:39:09, Thu 23-Jan-2014 0.0 100.0 59.8 51.95708,1.27573 gps ±4m 244.3 44.4 0.0 ON 6.2
16:49:09, Thu 23-Jan-2014 0.0 100.0 58.6 51.95708,1.27573 gps ±4m 244.3 48.6 0.0 ON 6.0
16:59:09, Thu 23-Jan-2014 0.0 100.0 57.2 51.95707,1.27573 gps ±4m 244.7 48.5 0.0 ON 6.0
17:09:09, Thu 23-Jan-2014 0.0 100.0 56.7 51.95707,1.27573 gps ±4m 244.7 48.5 0.0 ON 5.9
17:19:09, Thu 23-Jan-2014 0.0 100.0 56.0 51.95707,1.27573 gps ±4m 245.0 48.5 0.0 ON 5.9
17:29:09, Thu 23-Jan-2014 0.0 100.0 55.6 51.95707,1.27573 gps ±4m 245.1 46.2 0.0 ON 5.8
17:39:09, Thu 23-Jan-2014 0.0 100.0 55.7 51.95707,1.27573 gps ±4m 245.0 46.3 0.0 ON 5.7
17:49:09, Thu 23-Jan-2014 0.0 100.0 56.0 51.95707,1.27573 gps ±4m 245.0 46.1 0.0 ON 5.6
17:59:09, Thu 23-Jan-2014 0.0 100.0 57.2 51.95707,1.27573 gps ±4m 245.5 46.3 0.0 ON 5.5
18:09:09, Thu 23-Jan-2014 0.0 100.0 58.2 51.95707,1.27573 gps ±2m 245.5 46.0 0.0 ON 5.4
18:19:09, Thu 23-Jan-2014 0.0 100.0 58.8 51.95707,1.27573 gps ±32m 245.5 46.2 0.0 ON 5.3
18:29:09, Thu 23-Jan-2014 0.0 100.0 59.2 51.95707,1.27573 gps ±48m 245.5 46.3 0.0 ON 5.2
18:39:09, Thu 23-Jan-2014 0.0 100.0 59.5 51.95707,1.27573 gps ±4m 245.4 46.2 0.0 ON 5.0
18:43:44, Thu 23-Jan-2014 0.0 100.0 59.8 51.95707,1.27573 gps ±4m 245.4 46.3 0.0 ON 4.9
18:49:09, Thu 23-Jan-2014 0.0 100.0 58.6 51.95707,1.27573 gps ±48m 245.4 49.0 0.0 ON 4.9
18:59:09, Thu 23-Jan-2014 0.0 100.0 57.0 51.95707,1.27573 gps ±6m 245.5 48.9 0.0 ON 4.8
19:09:09, Thu 23-Jan-2014 0.0 100.0 56.5 51.95707,1.27572 gps ±4m 245.5 48.7 0.0 ON 4.7
19:19:09, Thu 23-Jan-2014 0.0 100.0 55.9 51.95707,1.27573 gps ±4m 245.5 48.9 0.0 ON 4.6
19:29:09, Thu 23-Jan-2014 0.0 100.0 55.9 51.95707,1.27572 gps ±4m 245.5 48.7 0.0 ON 4.5
19:39:09, Thu 23-Jan-2014 0.0 100.0 55.9 51.95707,1.27572 gps ±4m 245.5 48.9 0.0 ON 4.4
19:49:09, Thu 23-Jan-2014 0.0 100.0 56.0 51.95707,1.27572 gps ±4m 245.5 48.8 0.0 ON 4.3
19:59:09, Thu 23-Jan-2014 0.0 100.0 56.9 51.95707,1.27573 gps ±4m 245.5 48.8 0.0 ON 4.2
20:09:09, Thu 23-Jan-2014 0.0 100.0 58.2 51.95707,1.27573 gps ±4m 245.5 48.9 0.0 ON 4.1
20:19:09, Thu 23-Jan-2014 0.0 100.0 58.8 51.95707,1.27573 gps ±4m 245.5 48.9 0.0 ON 4.0
20:29:09, Thu 23-Jan-2014 0.0 100.0 59.2 51.95707,1.27573 gps ±4m 245.5 48.7 0.0 ON 3.8
20:39:09, Thu 23-Jan-2014 0.0 100.0 59.8 51.95707,1.27573 gps ±4m 245.5 48.8 0.0 ON 3.8
20:49:09, Thu 23-Jan-2014 0.0 100.0 59.4 51.95707,1.27573 gps ±4m 245.5 48.8 0.0 ON 3.7
20:59:09, Thu 23-Jan-2014 0.0 100.0 58.0 51.95707,1.27573 gps ±16m 245.5 48.5 0.0 ON 3.6
21:09:09, Thu 23-Jan-2014 0.0 100.0 57.4 51.95707,1.27573 gps ±4m 245.4 48.8 0.0 ON 3.5
21:19:09, Thu 23-Jan-2014 0.0 100.0 56.9 51.95707,1.27573 gps ±6m 245.4 48.6 0.0 ON 3.5
21:29:09, Thu 23-Jan-2014 0.0 100.0 56.6 51.95706,1.27574 gps ±6m 245.9 48.3 0.0 ON 3.4
21:39:09, Thu 23-Jan-2014 0.0 100.0 56.5 51.95706,1.27574 gps ±4m 245.5 48.2 0.0 ON 3.4
21:49:09, Thu 23-Jan-2014 0.0 100.0 56.6 51.95706,1.27574 gps ±24m 245.5 48.2 0.0 ON 3.3
21:59:09, Thu 23-Jan-2014 0.0 100.0 57.4 51.95707,1.27574 gps ±4m 245.1 48.2 0.0 ON 3.2
22:09:09, Thu 23-Jan-2014 0.0 100.0 58.3 51.95707,1.27574 gps ±4m 245.1 48.3 0.0 ON 3.1
22:19:09, Thu 23-Jan-2014 0.0 100.0 59.1 51.95707,1.27575 gps ±4m 245.1 48.3 0.0 ON 3.1
22:29:09, Thu 23-Jan-2014 0.0 100.0 59.5 51.95707,1.27574 gps ±4m 244.7 48.4 0.0 ON 3.0
22:39:09, Thu 23-Jan-2014 0.0 100.0 60.0 51.95707,1.27574 gps ±4m 244.7 48.4 0.0 ON 2.9
22:49:09, Thu 23-Jan-2014 0.0 100.0 59.4 51.95707,1.27575 gps ±4m 244.6 48.3 0.0 ON 2.8
22:59:09, Thu 23-Jan-2014 0.0 100.0 58.0 51.95707,1.27575 gps ±4m 244.6 48.3 0.0 ON 2.8
23:09:09, Thu 23-Jan-2014 0.0 100.0 57.7 51.95707,1.27575 gps ±4m 244.2 48.2 0.0 ON 2.8
23:19:09, Thu 23-Jan-2014 0.0 100.0 57.2 51.95707,1.27575 gps ±6m 244.2 48.3 0.0 ON 2.8
23:29:09, Thu 23-Jan-2014 0.0 100.0 56.9 51.95707,1.27575 gps ±4m 244.2 48.1 0.0 ON 2.7
23:39:09, Thu 23-Jan-2014 0.0 100.0 56.7 51.95708,1.27575 gps ±4m 243.8 48.2 0.0 ON 2.7
23:49:09, Thu 23-Jan-2014 0.0 100.0 57.0 51.95708,1.27575 gps ±4m 243.8 48.1 0.0 ON 2.6
23:59:07, Thu 23-Jan-2014 0.0 100.0 57.7 51.95708,1.27575 gps ±4m 243.8 53.9 0.0 ON 2.6
00:09:07, Fri 24-Jan-2014 0.0 100.0 58.4 51.95708,1.27575 gps ±4m 243.8 54.3 0.0 ON 2.5
00:19:07, Fri 24-Jan-2014 0.0 100.0 58.8 51.95708,1.27575 gps ±4m 243.9 54.3 0.0 ON 2.4
00:29:07, Fri 24-Jan-2014 0.0 100.0 59.3 51.95708,1.27575 gps ±4m 243.9 54.2 0.0 ON 2.4
00:39:07, Fri 24-Jan-2014 0.0 100.0 59.9 51.95708,1.27575 gps ±2m 243.9 54.0 0.0 ON 2.3
00:49:07, Fri 24-Jan-2014 0.0 100.0 59.1 51.95708,1.27575 gps ±4m 243.5 53.7 0.0 ON 2.2
00:59:07, Fri 24-Jan-2014 0.0 100.0 57.5 51.95708,1.27575 gps ±4m 243.5 53.6 0.0 ON 2.2
01:09:07, Fri 24-Jan-2014 0.0 100.0 57.1 51.95708,1.27575 gps ±4m 243.9 53.3 0.0 ON 2.2
01:19:07, Fri 24-Jan-2014 0.0 100.0 56.9 51.95708,1.27575 gps ±4m 243.8 53.4 0.0 ON 2.1
01:29:07, Fri 24-Jan-2014 0.0 100.0 56.6 51.95708,1.27575 gps ±4m 243.8 53.5 0.0 ON 2.1
01:39:07, Fri 24-Jan-2014 0.0 100.0 56.6 51.95708,1.27575 gps ±4m 243.8 53.5 0.0 ON 2.0
01:49:07, Fri 24-Jan-2014 0.0 100.0 56.5 51.95708,1.27575 gps ±4m 243.8 53.3 0.0 ON 2.0
01:59:07, Fri 24-Jan-2014 0.0 100.0 57.2 51.95708,1.27575 gps ±4m 243.8 53.4 0.0 ON 1.9
02:09:07, Fri 24-Jan-2014 0.0 100.0 57.8 51.95708,1.27575 gps ±4m 243.8 53.3 0.0 ON 1.8
02:19:07, Fri 24-Jan-2014 0.0 100.0 58.4 51.95708,1.27575 gps ±4m 243.8 53.4 0.0 ON 1.7
02:29:07, Fri 24-Jan-2014 0.0 100.0 58.8 51.95708,1.27575 gps ±12m 243.8 53.4 0.0 ON 1.7
02:39:07, Fri 24-Jan-2014 0.0 100.0 59.2 51.95708,1.27575 gps ±4m 243.9 53.5 0.0 ON 1.6
02:49:07, Fri 24-Jan-2014 0.0 100.0 58.7 51.95708,1.27575 gps ±4m 243.9 53.3 0.0 ON 1.5
02:59:07, Fri 24-Jan-2014 0.0 100.0 57.3 51.95708,1.27574 gps ±8m 243.9 53.4 0.0 ON 1.5
03:09:07, Fri 24-Jan-2014 0.0 100.0 56.6 51.95708,1.27574 gps ±4m 243.9 53.3 0.0 ON 1.4
03:19:07, Fri 24-Jan-2014 0.0 100.0 56.4 51.95708,1.27574 gps ±4m 243.9 53.4 0.0 ON 1.4
03:29:07, Fri 24-Jan-2014 0.0 100.0 56.3 51.95708,1.27574 gps ±4m 243.9 45.9 0.0 ON 1.3
03:39:07, Fri 24-Jan-2014 0.0 100.0 56.2 51.95708,1.27574 gps ±4m 243.9 45.5 0.0 ON 1.3
03:49:07, Fri 24-Jan-2014 0.0 100.0 56.1 51.95708,1.27574 gps ±4m 243.9 45.6 0.0 ON 1.3
03:59:07, Fri 24-Jan-2014 0.0 100.0 56.5 51.95708,1.27574 gps ±4m 243.9 45.5 0.0 ON 1.2
04:09:07, Fri 24-Jan-2014 0.0 100.0 57.1 51.95708,1.27574 gps ±4m 243.9 45.4 0.0 ON 1.2
04:19:07, Fri 24-Jan-2014 0.0 100.0 57.6 51.95708,1.27574 gps ±4m 243.9 45.4 0.0 ON 1.1
04:29:07, Fri 24-Jan-2014 0.0 100.0 58.0 51.95708,1.27574 gps ±4m 244.0 45.5 0.0 ON 1.0
04:39:07, Fri 24-Jan-2014 0.0 100.0 58.6 51.95708,1.27574 gps ±4m 244.0 45.5 0.0 ON 0.9
04:49:07, Fri 24-Jan-2014 0.0 100.0 57.9 51.95708,1.27574 gps ±4m 244.0 45.4 0.0 ON 0.8
04:59:07, Fri 24-Jan-2014 0.0 100.0 56.8 51.95708,1.27574 gps ±4m 243.9 45.6 0.0 ON 0.8
05:09:07, Fri 24-Jan-2014 0.0 100.0 56.3 51.95708,1.27574 gps ±4m 244.0 45.6 0.0 ON 0.8
05:19:07, Fri 24-Jan-2014 0.0 100.0 55.9 51.95708,1.27574 gps ±4m 244.0 46.2 0.0 ON 0.8
05:29:07, Fri 24-Jan-2014 0.0 100.0 56.0 51.95708,1.27574 gps ±4m 243.9 45.9 0.0 ON 0.7
05:39:07, Fri 24-Jan-2014 0.0 100.0 55.8 51.95708,1.27574 gps ±4m 243.9 46.0 0.0 ON 0.7
05:49:07, Fri 24-Jan-2014 0.0 100.0 55.4 51.95708,1.27574 gps ±4m 243.9 46.3 0.0 ON 0.7
05:59:07, Fri 24-Jan-2014 0.0 100.0 55.8 51.95708,1.27574 gps ±4m 243.9 45.9 0.0 ON 0.7
06:09:07, Fri 24-Jan-2014 0.0 100.0 56.4 51.95708,1.27574 gps ±4m 244.0 46.1 0.0 ON 0.6
06:19:07, Fri 24-Jan-2014 0.0 100.0 57.1 51.95708,1.27574 gps ±6m 244.0 46.0 0.0 ON 0.6
06:29:07, Fri 24-Jan-2014 0.0 100.0 57.6 51.95708,1.27574 gps ±4m 244.0 46.0 0.0 ON 0.5
06:39:07, Fri 24-Jan-2014 0.0 100.0 58.1 51.95708,1.27574 gps ±4m 244.0 46.0 0.0 ON 0.5
06:43:48, Fri 24-Jan-2014 0.0 100.0 58.4 51.95708,1.27574 gps ±4m 244.0 45.9 0.0 ON 0.5